sat.trackr.live / text

‹ back to catalog

STARLINK-2654

NORAD 48454 · 2021-040AC

PAYLOAD ACTIVE UNKNOWN

§ Identity

Operator
Country
US
Launch date
2021-05-09
Launch site
AFETR
Launch vehicle
Mass (kg)
RCS (m²)

Purposes: comms

External: N2YO · Heavens-Above · Gunter

§ Orbital elements

Epoch: 2026-05-25T02:49:21.434016Z

Period
94.01 min
Inclination
53.1578°
Eccentricity
0.0001324
Mean motion
15.31715934 rev/d
Perigee alt
469.8 km
Apogee alt
471.6 km
Semi-major
6,848.8 km
B*
3.4634e-5
RAAN
182.6212°
Arg perigee
86.2142°
Mean anomaly
273.9011°
Rev number
27,839

§ Raw data

STARLINK-26541 48454U 21040AC  26145.11760919  .00000710  00000+0  34634-4 0  99952 48454  53.1578 182.6212 0001324  86.2142 273.9011 15.31715934278392

JSON: /api/v1/satellites/48454 · /tle

For live sub-satellite position, see the globe view (requires WebGL).

§ Visibility from observer

Set your observer location to see the next 7 days of passes ≥ 10°. The values pass through the URL so the page stays shareable.

No JS? Fill the form by hand. The geolocation button needs JavaScript.